Zurück zum Katalog

HULIANWANG DIGUI-17

AktivKommunikationLEO
NORAD 62977·PAYLOAD·🇨🇳 China

Gestartet Feb 11, 2025 von Wenchang Space Launch Site

Loading…

Nächste Überflüge (nächste 24 Stunden)

TLE

AktuellSource: Space-Track

Epoche: Sep 14, 2026, 20:58 UTC

1 62977U 25030G   26257.87426992 -.00000091  00000-0  70335-4 0  9993
2 62977  50.0054 273.9419 0000478  27.2864 332.8033 13.29328302 77795

Verfolge HULIANWANG DIGUI-17 in Echtzeit mit AllMySat

Download on the App Store